Location: Menands
(42.6920°N, 73.7246°W)
Time: 07:23:15
(UTC+00:00)

Helios 1A Rocket - Pass Details

Date: 18 February 2026
Orbit: 420 x 430 km, 98.3° (Epoch: 7 March)

Event Time Altitude Azimuth Distance (km) Brightness Sun altitude
Exits shadow 23:47:13 30° 74° (ENE) 782 3.0 -14.7°
Maximum altitude 23:47:50 33° 99° (E) 729 2.9 -14.8°
Drops below altitude 10° 23:50:48 10° 166° (SSE) 1,508 4.9 -15.4°
Sets 23:52:55 0° 176° (S) 2,370 6.0 -15.7°
